User: anonymous   Login
Location: Nebula Knoll Observatory
(43.6666°N, 71.0000°W)
Time: 22:25:54
(UTC-04:00)
Language:

Cosmos 1782 - Orbit

View from above orbital plane
View from above orbital plane
View from above satellite
View from above satellite

Ground track
Ground track

The orbit data is extracted from the following two-line orbital elements,

1 16986U 86074A   17146.52802674 +.00001133 +00000-0 +74569-4 0  9991
2 16986 082.5051 142.3023 0012663 057.5436 302.7014 15.06544898646414
Epoch (UTC): 26 May 2017 12:40:21
Eccentricity: 0.0012663
inclination: 82.5051°
perigee height: 538 km
apogee height: 555 km
right ascension of ascending node: 142.3023°
argument of perigee: 57.5436°
revolutions per day: 15.06544898
mean anomaly at epoch: 302.7014°
orbit number at epoch: 64641

The dashed part of the orbit path shows where the satellite is in the earth's shadow,  

DLR